FENGYUN 1C DEB, 35122

Orbit data source: Space-Track

FENGYUN 1C DEB, 35122 is space debris in SSO originally from a launch on Mon, 10 May 1999 UTC launched from the Taiyaun Space Center, China (TSC). Fengyun 1C debris stems from the Chinese weather satellite Fengyun-1C, which was intentionally destroyed by a Chinese anti-satellite missile in 2007. This event dramatically increased the amount of space debris, with thousands of trackable fragments posing hazards to satellites and human spaceflight. The Fengyun 1C debris cloud has become a focal point in discussions about space sustainability and the need for international regulations to prevent the creation of new debris.

Loading next visibility...
Identifier
35122, 1999-025DLA
Orbit
SSO
Country
Flag of CNCN / PRC
Related business
Manufacturer
Unknown
Mission
Spacecraft
Bus & Motor
Unknown
Mass
Unknown
Launch date (UTC)
1999-05-10 (26 years ago)
Launch vehicle
Unknown
Launch site
Taiyaun Space Center, China (TSC)
Object type
Payload
Rocket body
Debris
Shape & HBR
Unknown shape, 0.1 m
Radar Cross Section
Small (<0.1 m²)

Expand to show TLE details & history
Last TLE update: 3 days ago

TLE from 3 days ago
0 FENGYUN 1C DEB
1 35122U 99025DLA 25306.83374277  .00000620  00000-0  34793-3 0  9992
2 35122  98.6760 326.4199 0023823 273.6125  86.2324 14.14055902633030
Epoch: 2025-11-02T20:00Z
TLE epoch observation values (Epoch: 2025-11-02T20:00:35.375Z)
Latitude
-0°
Longitude
-16.07129°
Altitude
847.343 km
Speed
7.43 km/s
True Right ascension
21h 45m 40s
True Declination
0° 00' 00"
Sunlit
Object was in daylight at epoch
Visualization orbit readout
Latitude
Unknown
Longitude
Unknown
Altitude
Unknown
Speed
Unknown
Apparent Right ascension
Unknown
Apparent Declination
Unknown
Sunlit
N/A
Visualization observer readout
Local Sidereal Time
14:13:01
Azimuth
Unknown
Elevation
Unknown
Doppler factor
Unknown
Orbital elements
Apogee altitude
859.893 km
Perigee altitude
825.488 km
Semi-major axis
7,220.828 km
Eccentricity
0.00238
Inclination
98.676°
RAAN
326.4199°
Arg. of periapsis
273.6125°
True anomaly
86.50485°
Mean anomaly
86.2324°
Eccentric anomaly
86.36862°
Mean motion
3.53723 °/min
Orbital period
101.77 mins
BSTAR
0.00034793
Loading maneuver chart data...
Computing Atmospheric mass density...

Documentation

Showing up to 5 results
|